Richmond, VA

5:00 AM EST on December 15, 2019 (GMT -0500)
Richmond International

Weather History for KRIC - November, 2019

Change the Weather History Date:

Thursday, November 14, 2019

  Actual Average Record
Temperature  
Mean Temperature 32 °F 51 °F  
Max Temperature 45 °F 62 °F 81 °F (1993)
Min Temperature 20 °F 40 °F 18 °F (1976)
Degree Days  
Heating Degree Days 32 14  
Month to date heating degree days 266 172  
Since 1 July heating degree days 376 405  
Cooling Degree Days 0 0  
Month to date cooling degree days 0 0  
Year to date cooling degree days 2051 1543  
Moisture  
Dew Point 26 °F    
Average Humidity 70    
Maximum Humidity 89    
Minimum Humidity 48    
Precipitation  
Precipitation 0.02 in 0.10 in 1.12 in (1940)
Month to date precipitation 0.82 1.50  
Year to date precipitation 38.63 38.60  
Snow  
Snow 0.00 in 0.00 in T in (1933)
Month to date snowfall 0.9 0.0  
Since 1 July snowfall 0.9 0.0  
Snow Depth 0.00 in    
Sea Level Pressure  
Sea Level Pressure 30.40 in    
Wind  
Wind Speed 2 mph ()    
Max Wind Speed 10 mph    
Max Gust Speed 13 mph    
Visibility 9.9 miles    
Events Rain    
T = Trace of Precipitation, MM = Missing Value Source: Averaged Metar Reports

Daily Weather History Graph

Daily Weather History Graph

Search for Another Location

Airport or City:

Astronomy

Nov. 14, 2019 Rise Set
Actual Time 6:47 AM EST 4:59 PM EST
Civil Twilight 6:19 AM EST 5:27 PM EST
Nautical Twilight 5:48 AM EST 5:58 PM EST
Astronomical Twilight 5:17 AM EST 6:29 PM EST
Moon 6:45 PM EST (11/14) 8:39 AM EST (11/14)
Length of Visible Light 11h 07m
Length of Day
10h 11m
Waning Gibbous, 95% of the Moon is Illuminated
Nov 14
Waning Gibbous
Nov 19
Last Quarter
Nov 26
New
Dec 4
First Quarter
Dec 12
Full

Hourly Weather History & Observations

Time (EST) Temp. Windchill Dew Point Humidity Pressure Visibility Wind Dir Wind Speed Gust Speed Precip Events Conditions
12:54 AM 24.1 °F - 18.0 °F 77% 30.46 in 10.0 mi Calm Calm - N/A   Partly Cloudy
1:54 AM 21.9 °F - 18.0 °F 85% 30.45 in 10.0 mi Calm Calm - N/A   Clear
2:54 AM 23.0 °F - 18.0 °F 81% 30.45 in 10.0 mi Calm Calm - N/A   Clear
3:54 AM 21.9 °F - 18.0 °F 85% 30.43 in 10.0 mi Calm Calm - N/A   Partly Cloudy
4:54 AM 23.0 °F - 18.0 °F 81% 30.44 in 10.0 mi Calm Calm - N/A   Clear
5:54 AM 21.0 °F - 17.1 °F 85% 30.44 in 10.0 mi Calm Calm - N/A   Scattered Clouds
6:54 AM 23.0 °F 18.4 °F 18.0 °F 81% 30.45 in 10.0 mi NNW 3.5 mph - N/A   Mostly Cloudy
7:54 AM 28.9 °F - 21.9 °F 75% 30.47 in 10.0 mi Calm Calm - N/A   Mostly Cloudy
8:54 AM 33.1 °F 28.7 °F 25.0 °F 72% 30.47 in 10.0 mi South 4.6 mph - N/A   Overcast
9:54 AM 37.0 °F - 19.9 °F 50% 30.45 in 10.0 mi Calm Calm - N/A   Overcast
10:54 AM 39.9 °F 35.8 °F 25.0 °F 55% 30.44 in 10.0 mi South 5.8 mph - N/A   Overcast
11:54 AM 41.0 °F 36.4 °F 27.0 °F 57% 30.41 in 10.0 mi SSW 6.9 mph - N/A   Overcast
12:54 PM 42.1 °F 37.1 °F 28.0 °F 58% 30.38 in 10.0 mi SSW 8.1 mph - N/A   Overcast
1:54 PM 44.1 °F 40.1 °F 28.0 °F 53% 30.35 in 10.0 mi SSE 6.9 mph - N/A   Overcast
2:54 PM 44.1 °F 40.1 °F 28.9 °F 55% 30.34 in 10.0 mi SE 6.9 mph - N/A   Overcast
3:54 PM 44.1 °F - 30.0 °F 58% 30.35 in 10.0 mi Calm Calm - N/A   Overcast
4:54 PM 43.0 °F 40.3 °F 32.0 °F 65% 30.34 in 10.0 mi South 4.6 mph - N/A   Overcast
5:54 PM 43.0 °F - 32.0 °F 65% 30.35 in 10.0 mi Calm Calm - N/A   Overcast
6:04 PM 43.0 °F - 33.1 °F 68% 30.33 in 10.0 mi Calm Calm - N/A   Overcast
6:54 PM 43.0 °F - 33.1 °F 68% 30.35 in 10.0 mi Calm Calm - N/A   Overcast
7:54 PM 43.0 °F 41.3 °F 33.1 °F 68% 30.36 in 10.0 mi NNW 3.5 mph - N/A   Overcast
8:54 PM 43.0 °F 41.3 °F 34.0 °F 71% 30.34 in 10.0 mi North 3.5 mph - N/A   Overcast
10:54 PM 42.1 °F 37.1 °F 34.0 °F 73% 30.33 in 10.0 mi WNW 8.1 mph - 0.00 in Rain Light Rain
11:54 PM 39.9 °F 37.8 °F 37.0 °F 89% 30.31 in 7.0 mi NW 3.5 mph - 0.02 in Rain Light Rain